Regional Weather Roundup
Issued by NWS Cleveland, OH

Home | Current Version | Previous Version | Graphics & Text | Print | Product List | Glossary Off
Versions: 1 2 3 4 5 6 7 8 9 10 11 12 13 14 15 16 17 18 19 20 21 22 23 24 25 26 27 28 29 30 31 32 33 34 35 36 37 38 39 40 41 42 43 44 45 46 47 48 49 50

000
ASUS41 KCLE 011610
RWRCLE
OHIO REGIONAL WEATHER ROUNDUP
NATIONAL WEATHER SERVICE CLEVELAND, OH
1200 PM EDT FRI AUG 01 2014

NOTE: "FAIR" INDICATES FEW OR NO CLOUDS BELOW 12,000 FEET WITH NO
SIGNIFICANT WEATHER AND/OR OBSTRUCTIONS TO VISIBILITY.

OHZ001>008-015>018-024>027-034-035-043-044-011700-
   NORTHWEST OHIO

CITY           SKY/WX    TMP DP  RH WIND       PRES   REMARKS
DEFIANCE       MOSUNNY   79  62  56 SW3       30.12S
FINDLAY        MOSUNNY   81  61  50 W7        30.12S
TOLEDO EXPRESS MOSUNNY   79  62  56 W8        30.12S
TOLEDO EXEC    MOSUNNY   80  62  54 W9        30.12S
LIMA           MOSUNNY   78  61  55 W6        30.14S
$$

OHZ009>014-019>023-028>033-038-089-011700-
   NORTHEAST OHIO

CITY           SKY/WX    TMP DP  RH WIND       PRES   REMARKS
CLE-HOPKINS    MOSUNNY   78  62  57 SW5       30.15S
CLE-LAKEFRONT  SUNNY     76  62  62 NW5       30.12S
CUY CO. ARPT   MOSUNNY   81  68  65 SW7       30.14
LORAIN-ELYRIA  SUNNY     80  63  55 VRB6      30.14S
ASHTABULA      SUNNY     77  60  55 VRB5      30.16R
AKRON-CANTON   MOSUNNY   80  58  46 VRB3      30.15S
WOOSTER        SUNNY     79  62  56 W5        30.16S
MANSFIELD      SUNNY     80  58  46 CALM      30.15F
YOUNGSTOWN     MOSUNNY   78  59  51 W7        30.16S
$$

OHZ042-051>053-060>062-070>072-077>081-011700-
  SOUTHWEST OHIO

CITY           SKY/WX    TMP DP  RH WIND       PRES   REMARKS
CINC-COVINGTON MOSUNNY   81  56  42 E3        30.12S
CINC-LUNKEN    SUNNY     81  60  48 E3        30.11F
HAMILTON       MOSUNNY   81  62  52 CALM      30.13S
DAYTON         MOSUNNY   81  58  45 CALM      30.14F
WRIGHT-PAT AFB SUNNY     78  61  56 VRB2      30.13S
DAYTON GENERAL SUNNY     80  60  50 VRB3      30.13S
WILMINGTON     SUNNY     79  61  53 VRB3      30.13S
$$

OHZ036-037-039>041-045>050-054>059-063>069-073>076-082>088-011700-
  CENTRAL AND SOUTHEAST OHIO

CITY           SKY/WX    TMP DP  RH WIND       PRES   REMARKS
COLUMBUS       SUNNY     82  59  45 SE3       30.12F
OSU AIRPORT    PTSUNNY   78  61  55 W3        30.13S
BOLTON FIELD   SUNNY     79  64  61 S5        30.14S
RICKENBACK AFB SUNNY     80  54  40 CALM      30.13S
NEWARK         SUNNY     79  60  52 E3        30.13F
MARION         SUNNY     78  58  49 CALM      30.14S
LANCASTER      SUNNY     81  60  48 NE3       30.14S
ZANESVILLE     SUNNY     79  61  53 CALM      30.15S
NEW PHILLY     SUNNY     78  63  59 VRB3      30.15S
$$



USA.gov is the U.S. government's official web portal to all federal, state and local government web resources and services.